Location: Wanzleben
(52.0609°N, 11.4408°E)
Time: 07:04:17
(UTC+00:00)

Cosmos 1892 Rocket - Pass Details

Date: 18 September 2020
Orbit: 605 x 634 km, 82.5° (Epoch: 19 October)

Event Time Altitude Azimuth Distance (km) Brightness Sun altitude
Rises 20:13:57 0° 347° (NNW) 2,880 7.8 -25.2°
Reaches altitude 10° 20:16:11 10° 346° (NNW) 1,969 6.8 -25.5°
Enters shadow 20:20:07 67° 308° (NW) 661 3.8 -25.9°
